Weather in Sars

Russia / Perm Krai     56°33′03″N   57°07′45″E
temp.,
°C
wind,
m/s
gust,
m/s
humid.,
%
clouds,
%
prec.,
mm/h
press.,
hPa
HPBL,
m
3 march, wed
wed323:00−9ssw61492100 0.5 999533
02:00−8ssw5149496 0.4 998549
05:00−6sw5119598 1.0 997395
08:00−5sw4119694 0.3 997464
11:00−4wsw489497 0.7 998525
14:00−2wsw4792100 0.4 998683
17:00−3wsw4792100 0.7 998633
20:00−5sw279799 0.2 998252
4 march, thu
thu423:00−5sw3896100 0.9 999392
02:00−5wsw3796100 1.1 998363
05:00−8wnw3795100 2.1 999366
08:00−12wsw4995100 0.3 999281
11:00−10sw4893100 0.5 1000412
14:00−7sw5991100 0.1 999651
17:00−7sw61191100 0.3 998702
20:00−7ssw51294100 0.4 996749
5 march, fri
fri523:00−7ssw61394100 1.3 994795
02:00−4sw71394100 1.4 9911034
05:00−5wsw71393100 2.8 993845
08:00−6wsw41195100 0.6 997628
11:00−6sw61092100 1.1 999824
14:00−5wsw5890100 0.2 999788
17:00−5wsw3691100 0.3 1000634
20:00−8w269798 0.1 1001219
6 march, sat
sat623:00−13nw389699 0.3 1004275
02:00−19wnw3610079 0.0 1007154
05:00−20wsw3710090 0.1 1011151
08:00−20wsw410100100 0.0 1012217
11:00−15wsw41095100 0.1 1012341
14:00−10wsw51091100 0.1 1011676
17:00−10sw4892100 0.3 1010629
20:00−14ssw379799 0.1 1010154
7 march, sun
sun723:00−16ssw239695 0.1 100963
02:00−16sse1289100 0.0 100620
05:00−17se128699 0.0 100520
08:00−17ssw1287100 0.0 100520
11:00−13wsw2494100 0.1 1005276
14:00−11w4690100 0.2 1006728
17:00−13wsw5790100 0.4 1008701
20:00−17wsw4997100 0.1 1010382